Wind_Speed
17 18 19 19 19 19 19 19 19 19 20 22 22 22 22 22 22 23 23 25 26 26 27 27 27 27 28 28 29 30 30 30 31 31 31 32 32 32
18 18 19 19 19 20 20 21 20 21 21 22 22 23 23 24 24 24 24 25 26 27 28 28 28 28 29 30 30 31 32 32 33 33 33 34 34 33
17 18 19 20 20 21 21 21 21 21 21 22 23 24 24 25 26 26 26 27 27 28 29 29 30 30 30 30 31 32 33 33 34 34 35 34 34 34
18 19 20 21 21 21 22 22 22 22 23 23 24 25 25 26 27 27 27 28 29 30 30 30 30 31 32 32 33 34 35 35 34 35 35 35 35 35
19 20 20 21 22 22 22 23 23 24 24 25 25 26 27 28 28 28 29 30 30 31 31 31 32 32 33 34 33 34 35 35 35 35 35 35 35 35
20 20 20 20 21 22 23 24 25 25 26 26 27 28 28 29 29 29 30 30 31 32 32 32 33 33 34 34 35 35 36 36 36 36 36 36 35 35
20 21 21 21 21 22 23 25 26 27 27 28 28 29 29 29 30 30 30 31 32 32 32 32 33 33 34 35 35 35 35 35 35 35 36 36 35 35
21 22 22 22 22 22 23 25 26 27 28 28 29 30 30 30 30 30 31 32 32 33 33 34 34 35 34 34 34 35 35 35 35 35 35 35 34 34
20 21 22 22 23 23 24 25 26 28 28 29 30 31 31 31 31 32 32 33 33 33 33 34 34 34 35 35 35 35 35 36 35 35 35 35 35 34
22 23 23 24 24 25 26 27 27 28 29 31 31 31 31 31 31 33 33 33 34 35 35 34 34 35 36 36 35 35 36 36 35 35 35 35 35 35
23 23 24 25 26 26 27 28 29 29 30 31 32 31 31 32 33 33 34 34 34 35 35 35 35 35 36 36 36 36 36 36 36 36 36 36 35 35
24 25 25 26 26 27 28 28 29 29 30 31 32 32 33 34 34 34 34 35 35 35 35 35 36 36 36 36 36 36 36 36 36 36 36 36 35 35
26 26 27 27 28 28 28 29 29 30 31 31 32 33 33 34 35 35 35 36 36 37 36 36 36 36 36 36 36 36 36 36 37 36 35 34 34 34
27 27 27 27 28 28 29 29 30 30 31 32 32 33 34 35 35 35 35 36 36 36 36 36 36 36 36 36 36 36 35 35 35 36 35 34 34 33
26 27 27 27 28 29 29 30 30 31 32 33 33 34 34 34 35 35 35 35 35 35 35 36 36 35 35 35 35 35 35 34 33 33 34 34 34 33
26 26 27 28 29 30 30 30 31 32 32 33 33 33 33 34 34 35 35 35 35 35 35 36 35 35 35 35 34 34 34 34 34 33 33 34 33 32
27 27 28 29 30 30 31 32 32 33 33 33 33 33 33 34 35 35 35 35 35 35 35 35 34 34 34 34 33 33 33 33 33 33 33 33 32 32
28 29 30 30 30 31 31 32 33 33 33 33 34 34 34 34 34 34 34 34 34 34 34 34 34 34 33 33 33 33 32 33 33 33 33 32 32 31
29 30 31 31 31 32 33 33 33 34 34 34 34 34 34 34 35 35 35 34 34 34 34 34 34 34 34 34 34 33 33 33 33 33 32 32 31 31
30 31 31 32 32 32 33 33 34 34 34 35 35 35 34 34 35 35 35 34 34 34 34 34 34 33 33 33 33 33 33 33 33 32 32 32 31 31
30 30 31 32 32 33 33 33 33 34 34 35 34 34 34 34 34 34 34 33 34 34 34 34 33 33 33 32 32 32 32 33 32 32 32 31 31 30
30 31 31 32 33 33 34 34 34 34 34 34 33 33 33 33 33 33 33 34 34 33 33 33 33 32 32 32 32 32 33 33 33 33 33 32 31 30
31 31 32 32 33 33 33 33 33 33 33 33 33 33 33 33 33 33 34 34 33 33 33 32 32 32 32 33 33 33 33 33 32 32 32 32 31 31
Wind_Direction
270 269 269 269 269 271 273 276 277 277 279 279 280 280 280 280 281 281 281 281 281 282 282 283 283 283 283 283 284 284 283 284 285 285 284 282 283 282
272 271 270 270 271 272 274 275 275 277 280 282 281 280 279 281 282 283 284 284 283 283 283 284 286 287 286 285 285 285 284 284 284 285 285 284 284 282
275 274 273 273 273 274 273 275 276 277 279 281 281 281 281 281 283 284 284 284 284 284 285 285 286 285 284 284 284 284 284 284 284 284 285 285 284 283
281 280 276 274 273 275 275 276 276 278 280 281 282 283 283 283 283 285 285 285 285 285 285 285 285 284 282 282 284 283 282 282 284 284 284 284 284 283
285 283 281 278 276 277 278 279 279 279 280 281 281 282 283 284 284 285 286 287 287 287 287 286 285 285 284 284 284 284 284 284 284 285 284 284 285 284
287 287 283 282 281 279 278 279 279 279 280 282 282 283 284 284 284 285 286 286 286 287 287 287 287 286 286 286 286 285 285 285 286 286 285 284 285 286
289 289 287 285 284 283 282 281 280 280 282 283 283 284 285 286 286 287 287 286 287 287 287 287 287 287 287 286 286 286 286 286 286 286 286 285 285 285
289 289 289 288 287 286 283 283 283 284 284 283 283 284 285 286 287 288 288 288 288 289 288 287 286 288 288 288 287 287 287 287 287 286 286 287 287 286
291 291 292 292 291 290 289 287 287 286 285 285 285 285 285 286 287 288 289 290 290 290 289 289 288 288 289 288 288 288 288 288 287 287 286 287 287 287
292 292 292 292 291 290 290 289 289 288 287 286 287 288 288 287 288 289 290 290 290 289 289 290 289 288 288 288 288 288 287 287 287 286 285 286 286 286
295 293 292 292 291 290 291 291 291 291 290 289 290 291 290 290 290 291 291 291 291 291 291 290 289 288 288 288 288 287 287 286 286 286 287 287 286 286
297 296 296 295 293 292 292 292 293 293 293 292 292 292 292 291 291 292 291 291 291 291 290 290 288 288 288 288 288 288 288 287 287 287 287 287 287 287
297 297 296 296 296 295 295 294 295 295 295 295 293 293 294 294 294 293 292 291 292 291 291 290 289 289 289 289 288 288 288 288 287 286 287 287 287 286
298 298 298 299 299 298 296 295 295 295 295 295 294 294 294 294 294 294 293 293 293 293 292 292 291 290 290 289 289 288 288 288 288 287 286 286 286 285
299 299 299 299 299 298 296 296 296 296 296 295 295 295 295 295 295 295 295 294 295 295 294 294 293 291 290 290 290 289 288 286 287 287 286 285 285 284
299 299 300 300 300 300 299 298 298 298 298 298 297 297 296 296 295 295 295 295 296 296 296 295 295 293 292 291 291 290 289 287 287 287 287 286 285 286
300 300 301 300 300 300 300 299 299 299 299 299 298 298 298 298 298 297 296 296 297 297 297 297 295 294 293 292 291 291 290 288 287 287 288 287 285 285
299 300 300 300 300 300 300 300 301 301 301 299 298 298 298 299 299 299 298 298 298 298 298 297 296 295 294 293 293 292 291 289 288 288 287 286 284 283
300 301 301 301 301 301 301 300 301 301 302 301 300 300 300 299 299 299 299 299 299 299 299 298 297 295 294 293 293 293 292 291 290 289 287 286 285 284
301 301 301 301 301 301 301 302 302 301 301 300 300 300 300 299 299 300 300 300 300 300 300 299 297 296 295 294 293 292 291 291 290 288 286 286 285 284
302 302 303 303 302 302 302 302 302 302 302 302 301 301 301 300 300 300 300 300 300 299 299 299 298 297 296 295 294 293 292 291 290 288 286 285 284 284
305 305 304 304 304 304 304 303 303 303 303 304 303 304 303 302 301 301 301 301 300 300 299 299 299 297 297 296 295 294 293 293 291 289 287 285 284 284
305 305 306 305 305 304 305 304 304 304 305 306 306 305 305 304 303 302 302 302 301 300 299 298 298 298 297 296 296 296 294 293 292 291 289 287 285 284
Height
5866 5866 5866 5866 5865 5865 5864 5864 5864 5863 5862 5861 5860 5858 5857 5856 5855 5854 5853 5852 5850 5849 5847 5846 5845 5843 5842 5841 5839 5838 5836 5835 5833 5832 5830 5828 5827 5826
5862 5862 5861 5861 5860 5860 5859 5859 5858 5858 5857 5855 5854 5853 5852 5851 5849 5848 5847 5846 5844 5843 5841 5839 5838 5836 5835 5833 5832 5830 5828 5827 5825 5824 5822 5820 5818 5817
5858 5857 5856 5856 5855 5855 5854 5853 5852 5852 5851 5850 5848 5847 5846 5845 5843 5842 5840 5839 5837 5836 5834 5832 5831 5829 5827 5825 5824 5822 5820 5818 5817 5815 5813 5811 5809 5808
5853 5852 5851 5851 5850 5849 5848 5847 5847 5846 5845 5844 5842 5841 5839 5838 5837 5835 5833 5832 5830 5828 5827 5825 5823 5821 5819 5817 5815 5813 5811 5810 5808 5806 5804 5802 5801 5799
5848 5847 5846 5845 5844 5843 5842 5842 5841 5840 5839 5838 5836 5835 5833 5831 5830 5828 5826 5824 5822 5820 5818 5817 5815 5813 5811 5809 5807 5805 5803 5801 5799 5797 5795 5793 5791 5789
5843 5842 5841 5839 5838 5837 5836 5835 5834 5833 5832 5831 5829 5828 5826 5824 5822 5820 5818 5816 5814 5812 5810 5808 5806 5804 5802 5800 5798 5796 5794 5791 5789 5787 5785 5783 5781 5780
5838 5837 5835 5834 5832 5831 5830 5829 5827 5826 5825 5823 5822 5820 5818 5816 5814 5812 5810 5808 5806 5804 5801 5799 5797 5795 5793 5790 5788 5786 5784 5782 5780 5778 5776 5774 5772 5770
5833 5831 5830 5828 5826 5824 5823 5822 5820 5819 5817 5816 5814 5812 5810 5808 5806 5804 5802 5800 5798 5796 5793 5790 5788 5785 5783 5781 5778 5776 5774 5772 5770 5768 5766 5764 5762 5760
5828 5826 5824 5822 5820 5818 5817 5815 5814 5812 5810 5808 5806 5804 5802 5800 5798 5796 5793 5791 5789 5786 5784 5781 5779 5776 5774 5771 5769 5766 5764 5762 5760 5758 5756 5754 5752 5750
5822 5820 5818 5816 5814 5812 5810 5808 5806 5804 5802 5800 5798 5796 5794 5791 5789 5787 5784 5782 5779 5777 5774 5772 5769 5767 5764 5762 5759 5757 5755 5752 5750 5748 5746 5744 5742 5740
5816 5814 5812 5810 5808 5805 5803 5801 5799 5797 5795 5792 5789 5787 5785 5782 5780 5777 5775 5772 5770 5767 5764 5762 5759 5757 5754 5752 5749 5747 5745 5742 5740 5738 5736 5734 5732 5729
5810 5808 5806 5803 5801 5798 5796 5794 5791 5789 5786 5784 5781 5779 5776 5773 5770 5768 5765 5763 5760 5757 5755 5752 5749 5747 5744 5742 5739 5737 5734 5732 5730 5728 5725 5723 5721 5719
5803 5801 5799 5796 5794 5791 5788 5786 5784 5781 5778 5776 5773 5770 5767 5765 5762 5759 5756 5753 5750 5747 5745 5742 5739 5736 5733 5731 5729 5726 5724 5721 5719 5717 5715 5713 5711 5709
5796 5794 5791 5789 5786 5783 5781 5778 5776 5773 5770 5767 5764 5761 5758 5755 5752 5749 5746 5743 5740 5737 5734 5731 5728 5726 5723 5720 5718 5716 5713 5711 5709 5706 5704 5702 5701 5699
5789 5786 5784 5781 5778 5776 5773 5770 5767 5765 5761 5758 5755 5752 5749 5746 5743 5739 5736 5733 5730 5727 5723 5721 5718 5715 5712 5710 5708 5705 5703 5701 5698 5696 5694 5692 5690 5688
5782 5779 5776 5773 5771 5768 5765 5762 5759 5756 5752 5749 5746 5743 5739 5736 5733 5730 5727 5723 5720 5717 5713 5710 5707 5705 5702 5699 5697 5695 5693 5691 5688 5686 5684 5682 5680 5678
5774 5772 5769 5766 5763 5760 5756 5753 5750 5747 5743 5740 5737 5733 5730 5727 5724 5720 5717 5714 5710 5707 5703 5700 5697 5694 5692 5689 5687 5685 5682 5680 5678 5676 5674 5672 5670 5668
5767 5764 5761 5758 5755 5751 5748 5745 5741 5738 5734 5731 5727 5724 5721 5717 5714 5711 5707 5704 5700 5697 5694 5691 5688 5685 5682 5679 5677 5675 5672 5670 5668 5666 5664 5662 5660 5658
5759 5756 5753 5750 5746 5743 5739 5736 5733 5729 5725 5722 5718 5714 5711 5708 5704 5701 5698 5694 5691 5687 5684 5681 5678 5675 5673 5670 5667 5664 5662 5660 5658 5655 5653 5652 5650 5648
5751 5748 5744 5741 5738 5734 5731 5727 5723 5720 5716 5712 5709 5705 5702 5698 5695 5691 5688 5684 5681 5678 5675 5671 5668 5665 5662 5660 5658 5655 5652 5650 5647 5645 5643 5642 5640 5638
5742 5739 5736 5732 5729 5725 5722 5718 5714 5711 5707 5703 5699 5696 5692 5689 5685 5682 5678 5675 5672 5668 5665 5662 5658 5655 5653 5650 5648 5645 5642 5639 5637 5635 5633 5632 5630 5628
5734 5731 5727 5724 5720 5716 5713 5709 5705 5702 5698 5694 5690 5687 5683 5680 5676 5673 5669 5665 5662 5658 5655 5652 5649 5646 5643 5640 5637 5635 5632 5629 5627 5624 5622 5621 5619 5618
5726 5723 5719 5715 5711 5708 5704 5700 5696 5693 5689 5685 5681 5678 5674 5670 5667 5663 5659 5656 5652 5649 5645 5642 5639 5636 5633 5630 5627 5624 5622 5619 5616 5614 5612 5610 5608 5607